Seattle, WA

10:43 PM PST on January 23, 2018 (GMT -0800)
Seattle-Tacoma International

Weather History for KSEA - June, 2014

Change the Weather History Date:

Friday, June 13, 2014

  Actual Average Record
Temperature  
Mean Temperature 56 °F 60 °F  
Max Temperature 60 °F 69 °F 94 °F (2002)
Min Temperature 52 °F 52 °F 42 °F (1952)
Degree Days  
Heating Degree Days 9 5  
Month to date heating degree days 41 76  
Since 1 June heating degree days 41 76  
Since 1 July heating degree days 4193 4629  
Cooling Degree Days 0 1  
Month to date cooling degree days 1 1  
Year to date cooling degree days 16 7  
Since 1 June cooling degree days 1 1  
Growing Degree Days 6 (Base 50)    
Moisture  
Dew Point 50 °F    
Average Humidity 77    
Maximum Humidity 93    
Minimum Humidity 60    
Precipitation  
Precipitation 0.25 in 0.05 in 0.37 in (1953)
Month to date precipitation 0.32 0.80  
Year to date precipitation 26.90 18.24  
Sea Level Pressure  
Sea Level Pressure 29.97 in    
Wind  
Wind Speed 11 mph (SSW)    
Max Wind Speed 22 mph    
Max Gust Speed 31 mph    
Visibility 10 miles    
Events Rain    
T = Trace of Precipitation, MM = Missing Value Source: NWS Daily Summary

Daily Weather History Graph

Daily Weather History Graph

Search for Another Location

Airport or City:

Trip Planner

Search our weather history database for the weather conditions in past years. The results will help you decide how hot, cold, wet, or windy it might be!

Date:

Astronomy

Jun. 13, 2014 Rise Set
Actual Time 5:11 AM PDT 9:07 PM PDT
Civil Twilight 4:31 AM PDT 9:47 PM PDT
Nautical Twilight 3:36 AM PDT 10:43 PM PDT
Astronomical Twilight 2:10 AM PDT 12:09 AM PDT
Moon 9:36 PM PDT (6/13) 6:02 AM PDT (6/13)
Length of Visible Light 17h 16m
Length of Day
15h 55m
Waxing Gibbous, 99% of the Moon is Illuminated
Jun 13
Waxing Gibbous
Jun 19
Last Quarter
Jun 27
New
Jul 5
First Quarter
Jul 12
Full

Hourly Weather History & Observations

Time (PDT) Temp. Dew Point Humidity Pressure Visibility Wind Dir Wind Speed Gust Speed Precip Events Conditions
12:31 AM 53.6 °F 51.8 °F 94% 29.88 in 10.0 mi South 8.1 mph - N/A   Overcast
12:53 AM 54.0 °F 51.1 °F 90% 29.90 in 10.0 mi SSW 8.1 mph - N/A   Mostly Cloudy
1:04 AM 53.6 °F 51.8 °F 94% 29.88 in 10.0 mi South 8.1 mph - N/A   Mostly Cloudy
1:27 AM 53.6 °F 51.8 °F 94% 29.87 in 10.0 mi South 9.2 mph - N/A   Overcast
1:44 AM 53.6 °F 51.8 °F 94% 29.88 in 10.0 mi South 8.1 mph - N/A   Overcast
1:53 AM 54.0 °F 51.1 °F 90% 29.90 in 10.0 mi South 8.1 mph - N/A   Overcast
2:49 AM 53.6 °F 51.8 °F 94% 29.88 in 8.0 mi SSW 5.8 mph - 0.07 in Rain Light Rain
2:53 AM 53.1 °F 51.1 °F 93% 29.89 in 9.0 mi SW 5.8 mph - 0.07 in Rain Light Rain
3:53 AM 53.1 °F 51.1 °F 93% 29.90 in 6.0 mi SW 4.6 mph - 0.07 in Rain Light Rain
4:20 AM 53.6 °F 51.8 °F 94% 29.88 in 8.0 mi SSW 10.4 mph - 0.04 in Rain Light Rain
4:27 AM 53.6 °F 51.8 °F 94% 29.88 in 10.0 mi South 10.4 mph - 0.05 in Rain Light Rain
4:53 AM 53.1 °F 51.1 °F 93% 29.91 in 9.0 mi SSW 8.1 mph - 0.07 in Rain Light Rain
5:53 AM 53.1 °F 51.1 °F 93% 29.91 in 10.0 mi South 8.1 mph - 0.01 in   Overcast
6:53 AM 53.1 °F 51.1 °F 93% 29.92 in 10.0 mi South 9.2 mph - N/A   Overcast
7:53 AM 53.6 °F 51.8 °F 94% 29.91 in 10.0 mi South 10.4 mph - N/A Rain Light Rain
8:53 AM 54.0 °F 52.0 °F 93% 29.94 in 10.0 mi SSW 8.1 mph - 0.02 in   Overcast
9:53 AM 55.4 °F 53.6 °F 94% 29.93 in 10.0 mi SW 8.1 mph - N/A Rain Light Rain
10:53 AM 55.0 °F 53.1 °F 93% 29.97 in 10.0 mi SSW 10.4 mph - 0.00 in   Overcast
11:53 AM 55.0 °F 52.0 °F 89% 29.98 in 10.0 mi SSW 10.4 mph - N/A   Overcast
12:47 PM 55.4 °F 51.8 °F 88% 29.98 in 10.0 mi SSW 13.8 mph 18.4 mph N/A   Overcast
12:53 PM 55.9 °F 52.0 °F 87% 30.00 in 10.0 mi SSW 13.8 mph - N/A   Overcast
1:53 PM 57.2 °F 51.8 °F 82% 29.99 in 10.0 mi South 11.5 mph - N/A Rain Light Rain
3:53 PM 59.0 °F 51.8 °F 77% 30.02 in 10.0 mi SSE 12.7 mph 18.4 mph N/A   Overcast
4:53 PM 60.1 °F 46.9 °F 62% 30.05 in 10.0 mi SSW 15.0 mph 24.2 mph N/A   Overcast
5:53 PM 59.0 °F 46.0 °F 62% 30.06 in 10.0 mi SSW 15.0 mph 24.2 mph N/A   Mostly Cloudy
6:53 PM 57.9 °F 46.0 °F 65% 30.07 in 10.0 mi SW 17.3 mph 23.0 mph N/A   Mostly Cloudy
7:53 PM 57.9 °F 45.0 °F 62% 30.09 in 10.0 mi SSW 13.8 mph 21.9 mph N/A   Overcast
8:53 PM 57.0 °F 44.1 °F 62% 30.11 in 10.0 mi SSW 15.0 mph 23.0 mph N/A   Overcast
9:53 PM 55.9 °F 44.1 °F 64% 30.13 in 10.0 mi SSW 16.1 mph 28.8 mph N/A   Overcast
10:53 PM 55.0 °F 44.1 °F 67% 30.14 in 10.0 mi SSW 13.8 mph 20.7 mph N/A   Mostly Cloudy
11:53 PM 55.0 °F 44.1 °F 67% 30.14 in 10.0 mi SSW 11.5 mph 18.4 mph N/A   Mostly Cloudy